Location: Buchloe
(48.0161°N, 10.7316°E)
Time: 04:08:42
(UTC+02:00)

ISS - Pass Details

Date: 11 July 2025
Orbit: 413 x 417 km, 51.6° (Epoch: 12 July)

Event Time Altitude Azimuth Distance (km) Brightness Sun altitude
Rises 23:33:53 0° 271° (W) 2,349 0.4 -15.9°
Reaches altitude 10° 23:36:01 10° 278° (W) 1,488 -0.5 -16.0°
Maximum altitude 23:39:15 45° 352° (N) 574 -2.6 -16.3°
Drops below altitude 10° 23:42:30 10° 68° (ENE) 1,492 -1.0 -16.5°
Sets 23:44:39 0° 74° (ENE) 2,356 0.0 -16.6°
